Weather History for KBWI - November, 2014

Change the Weather History Date:

Sunday, November 16, 2014

  Actual Average Record
Temperature  
Mean Temperature 37 °F 46 °F  
Max Temperature 45 °F 56 °F 76 °F (1928)
Min Temperature 28 °F 37 °F 19 °F (1996)
Degree Days  
Heating Degree Days 28 19  
Month to date heating degree days 295 260  
Since 1 July heating degree days 547 607  
Cooling Degree Days 0 0  
Month to date cooling degree days 0 0  
Year to date cooling degree days 1084 1163  
Moisture  
Dew Point 27 °F    
Average Humidity 70    
Maximum Humidity 100    
Minimum Humidity 40    
Precipitation  
Precipitation 0.07 in 0.10 in 3.11 in (1926)
Month to date precipitation 0.82 1.72  
Year to date precipitation 46.46 36.93  
Snow  
Snow 0.00 in 0.00 in T in (2000)
Month to date snowfall T 0.1  
Since 1 July snowfall T 0.1  
Snow Depth 0.00 in    
Sea Level Pressure  
Sea Level Pressure 30.26 in    
Wind  
Wind Speed 3 mph (SSW)    
Max Wind Speed 10 mph    
Max Gust Speed 15 mph    
Visibility 10 miles    
Events Rain    
T = Trace of Precipitation, MM = Missing Value Source: NWS Daily Summary

Daily Weather History Graph

Daily Weather History Graph

Search for Another Location

Airport or City:

Trip Planner

Search our weather history database for the weather conditions in past years. The results will help you decide how hot, cold, wet, or windy it might be!

Date:

Astronomy

Nov. 16, 2014 Rise Set
Actual Time 6:51 AM EST 4:51 PM EST
Civil Twilight 6:22 AM EST 5:20 PM EST
Nautical Twilight 5:50 AM EST 5:52 PM EST
Astronomical Twilight 5:18 AM EST 6:24 PM EST
Moon 12:58 AM EST (11/16) 1:41 PM EST (11/16)
Length of Visible Light 10h 57m
Length of Day
10h 00m
Waning Crescent, 31% of the Moon is Illuminated
Nov 16
Waning Crescent
Nov 22
New
Nov 29
First Quarter
Dec 6
Full
Dec 14
Last Quarter

Hourly Weather History & Observations

Time (EST) Temp. Windchill Dew Point Humidity Pressure Visibility Wind Dir Wind Speed Gust Speed Precip Events Conditions
12:54 AM 30.9 °F - 24.1 °F 76% 30.36 in 10.0 mi Calm Calm - N/A   Overcast
1:54 AM 30.9 °F - 24.1 °F 76% 30.38 in 10.0 mi Calm Calm - N/A   Overcast
2:54 AM 32.0 °F - 24.1 °F 73% 30.37 in 10.0 mi Calm Calm - N/A   Overcast
3:54 AM 34.0 °F - 23.0 °F 64% 30.37 in 10.0 mi Calm Calm - N/A   Overcast
4:54 AM 35.1 °F - 24.1 °F 64% 30.34 in 10.0 mi Calm Calm - N/A   Overcast
5:54 AM 35.1 °F - 26.1 °F 70% 30.34 in 10.0 mi Calm Calm - N/A   Overcast
6:54 AM 36.0 °F 32.1 °F 26.1 °F 67% 30.35 in 10.0 mi SSW 4.6 mph - N/A   Mostly Cloudy
7:54 AM 37.0 °F 34.5 °F 26.1 °F 65% 30.35 in 9.0 mi South 3.5 mph - N/A   Overcast
8:54 AM 37.9 °F 34.4 °F 26.1 °F 62% 30.35 in 10.0 mi SSW 4.6 mph - N/A   Overcast
9:54 AM 39.9 °F 34.5 °F 25.0 °F 55% 30.33 in 10.0 mi South 8.1 mph - N/A   Overcast
10:54 AM 41.0 °F 35.8 °F 24.1 °F 51% 30.31 in 10.0 mi SSW 8.1 mph - N/A   Overcast
11:54 AM 42.1 °F 38.4 °F 23.0 °F 47% 30.26 in 10.0 mi SSW 5.8 mph - N/A   Overcast
12:54 PM 44.1 °F 40.8 °F 21.9 °F 42% 30.22 in 10.0 mi South 5.8 mph - N/A   Overcast
1:54 PM 44.1 °F 40.8 °F 21.0 °F 40% 30.22 in 10.0 mi South 5.8 mph - N/A   Overcast
2:54 PM 45.0 °F 42.6 °F 21.0 °F 39% 30.21 in 10.0 mi SSW 4.6 mph - N/A   Overcast
3:54 PM 45.0 °F - 21.9 °F 40% 30.20 in 10.0 mi Calm Calm - N/A   Overcast
4:54 PM 45.0 °F - 23.0 °F 42% 30.20 in 10.0 mi Calm Calm - N/A   Overcast
5:54 PM 39.9 °F - 34.0 °F 79% 30.21 in 8.0 mi Calm Calm - 0.03 in Rain Light Rain
6:54 PM 39.0 °F - 36.0 °F 89% 30.20 in 9.0 mi Calm Calm - 0.04 in Rain Light Rain
7:54 PM 39.9 °F - 36.0 °F 86% 30.16 in 10.0 mi Calm Calm - 0.00 in   Overcast
8:54 PM 39.9 °F 36.7 °F 36.0 °F 86% 30.14 in 10.0 mi North 4.6 mph - 0.00 in   Overcast
9:54 PM 39.9 °F - 39.0 °F 97% 30.10 in 8.0 mi Calm Calm - 0.00 in   Overcast
10:54 PM 41.0 °F 38.0 °F 36.0 °F 82% 30.06 in 10.0 mi ESE 4.6 mph - N/A   Overcast
11:54 PM 41.0 °F - 37.9 °F 89% 30.04 in 7.0 mi Calm Calm - 0.00 in Rain Light Rain